FW1203 Weather Reports


Display with metric or nautical units.
time (UTC)temp
F
wind
direction
speed
MPH
gust
MPH
rain 1hr
in
rain 24hr
in
rain mn
in
humidity
%
barometer
mb
20260507090333 34 0 0.0 0.0 0.00 0.00 0.00 84 1014.3
20260507085833 34 0 0.0 0.0 0.00 0.00 0.00 84 1014.4
20260507085333 34 0 0.0 0.0 0.00 0.00 0.00 84 1014.3
20260507084833 34 0 0.0 0.0 0.00 0.00 0.00 84 1014.2
20260507084333 34 0 0.0 0.0 0.00 0.00 0.00 83 1014.2
20260507083833 34 0 0.0 0.0 0.00 0.00 0.00 83 1014.2
20260507083333 35 0 0.0 0.0 0.00 0.00 0.00 83 1014.2
20260507082833 35 0 0.0 0.0 0.00 0.00 0.00 82 1014.2
20260507082332 35 0 0.0 0.0 0.00 0.00 0.00 82 1014.2
20260507081833 35 0 0.0 0.0 0.00 0.00 0.00 82 1014.2
20260507081333 35 0 0.0 0.0 0.00 0.00 0.00 82 1014.2
20260507080833 35 0 0.0 0.0 0.00 0.00 0.00 82 1014.1
20260507080333 35 0 0.0 0.0 0.00 0.00 0.00 81 1014.2
20260507075833 36 0 0.0 0.0 0.00 0.00 0.00 81 1014.2
20260507075333 36 0 0.0 0.0 0.00 0.00 0.00 80 1014.3
20260507074833 36 0 0.0 0.0 0.00 0.00 0.00 80 1014.3
20260507074333 36 0 0.0 0.0 0.00 0.00 0.00 80 1014.2
20260507073833 36 0 0.0 0.0 0.00 0.00 0.00 79 1014.2
20260507073333 36 0 0.0 0.0 0.00 0.00 0.00 79 1014.3
20260507072832 36 0 0.0 0.0 0.00 0.00 0.00 79 1014.4
20260507072333 36 0 0.0 0.0 0.00 0.00 0.00 78 1014.4
20260507071833 37 0 0.0 0.0 0.00 0.00 0.00 78 1014.5
20260507071333 37 0 0.0 0.0 0.00 0.00 0.00 78 1014.5
20260507070833 37 0 0.0 0.0 0.00 0.00 0.00 77 1014.5
20260507070333 37 0 0.0 0.0 0.00 0.00 0.00 77 1014.6
20260507065833 37 0 0.0 0.0 0.00 0.00 0.00 77 1014.5
20260507065333 37 0 0.0 0.0 0.00 0.00 0.00 76 1014.5
20260507064833 38 0 0.0 0.0 0.00 0.00 0.00 76 1014.5
20260507064333 38 0 0.0 0.0 0.00 0.00 0.00 75 1014.6
20260507063833 38 0 0.0 0.0 0.00 0.00 0.00 75 1014.6
20260507063333 38 0 0.0 0.0 0.00 0.00 0.00 74 1014.6
20260507062832 38 0 0.0 0.0 0.00 0.00 0.00 73 1014.6
20260507062333 38 0 0.0 0.0 0.00 0.00 0.00 73 1014.6
20260507061833 39 0 0.0 0.0 0.00 0.00 0.00 73 1014.7
20260507061333 39 0 0.0 0.0 0.00 0.00 0.00 72 1014.8
20260507060833 39 0 0.0 0.0 0.00 0.00 0.00 71 1014.7
20260507060333 39 0 0.0 0.0 0.00 0.00 0.00 70 1014.7
20260507055833 40 0 0.0 0.0 0.00 0.00 0.00 70 1014.6
20260507055333 40 0 0.0 0.0 0.00 0.00 0.00 69 1014.6
20260507054833 40 0 0.0 0.0 0.00 0.00 0.00 68 1014.5
20260507054333 40 0 0.0 0.0 0.00 0.00 0.00 67 1014.6
20260507053833 41 0 0.0 0.0 0.00 0.00 0.00 67 1014.5
20260507053333 41 0 0.0 0.0 0.00 0.00 0.00 66 1014.6
20260507052833 41 0 0.0 0.0 0.00 0.00 0.00 65 1014.5
20260507052333 42 0 0.0 0.0 0.00 0.00 0.00 65 1014.6
20260507051833 42 0 0.0 0.0 0.00 0.00 0.00 64 1014.6
20260507051333 42 0 0.0 0.0 0.00 0.00 0.00 63 1014.6
20260507050833 43 0 0.0 0.0 0.00 0.00 0.00 62 1014.6
20260507050333 43 0 0.0 0.0 0.00 0.00 0.00 61 1014.7
20260507045833 43 0 0.0 0.0 0.00 0.00 0.00 61 1014.6
20260507045333 44 0 0.0 0.0 0.00 0.00 0.00 60 1014.7
20260507044833 44 0 0.0 0.0 0.00 0.00 0.00 60 1014.6
20260507044333 44 0 0.0 0.0 0.00 0.00 0.00 59 1014.6
20260507043833 44 0 0.0 0.0 0.00 0.00 0.00 59 1014.5
20260507043333 45 0 0.0 0.0 0.00 0.00 0.00 58 1014.5
20260507042833 45 0 0.0 0.0 0.00 0.00 0.00 58 1014.4
20260507042333 45 0 0.0 0.0 0.00 0.00 0.00 58 1014.4
20260507041833 45 0 0.0 0.0 0.00 0.00 0.00 57 1014.4
20260507041332 45 286 0.0 1.0 0.00 0.00 0.00 57 1014.5
20260507040833 46 286 0.0 3.0 0.00 0.00 0.00 56 1014.5
20260507040333 46 285 0.0 3.0 0.00 0.00 0.00 55 1014.5
20260507035833 46 273 0.0 1.0 0.00 0.00 0.00 56 1014.6
20260507035333 46 273 0.0 1.0 0.00 0.00 0.00 56 1014.6
20260507034833 46 0 0.0 0.0 0.00 0.00 0.00 56 1014.6
20260507034333 46 0 0.0 0.0 0.00 0.00 0.00 55 1014.6
20260507033833 46 0 0.0 0.0 0.00 0.00 0.00 55 1014.6
20260507033333 46 0 0.0 0.0 0.00 0.00 0.00 54 1014.6
20260507032833 47 264 0.0 1.0 0.00 0.00 0.00 54 1014.6
20260507032333 47 264 0.0 2.0 0.00 0.00 0.00 54 1014.5
20260507031833 47 269 0.0 2.0 0.00 0.00 0.00 54 1014.5
20260507031333 47 269 0.0 2.0 0.00 0.00 0.00 54 1014.5
20260507030833 47 286 0.0 1.0 0.00 0.00 0.00 53 1014.5
20260507030333 47 300 0.0 3.0 0.00 0.00 0.00 53 1014.5
20260507025833 47 300 0.0 3.0 0.00 0.00 0.00 52 1014.5
20260507025333 48 0 0.0 0.0 0.00 0.00 0.00 52 1014.5
20260507024833 48 284 0.0 1.0 0.00 0.00 0.00 51 1014.5
20260507024333 48 284 0.0 1.0 0.00 0.00 0.00 52 1014.4
20260507023833 48 284 0.0 2.0 0.00 0.00 0.00 51 1014.3
20260507023333 48 283 0.0 2.0 0.00 0.00 0.00 51 1014.3
20260507022833 48 284 0.0 2.0 0.00 0.00 0.00 50 1014.2
20260507022333 48 285 0.0 2.0 0.00 0.00 0.00 51 1014.1
20260507021833 48 284 0.0 2.0 0.00 0.00 0.00 51 1014.1
20260507021332 49 284 0.0 3.0 0.00 0.00 0.00 51 1014.0
20260507020833 49 298 0.0 3.0 0.00 0.00 0.00 50 1013.9
20260507020333 49 297 0.0 2.0 0.00 0.00 0.00 50 1013.9
20260507015833 49 248 0.0 1.0 0.00 0.00 0.00 50 1013.9
20260507015333 49 248 0.0 2.0 0.00 0.00 0.00 50 1013.9
20260507014833 49 247 0.0 3.0 0.00 0.00 0.00 49 1013.7
20260507014333 50 244 0.0 3.0 0.00 0.00 0.00 49 1013.8
20260507013833 50 240 0.0 3.0 0.00 0.00 0.00 49 1013.7
20260507013332 50 288 1.0 3.0 0.00 0.00 0.00 48 1013.5
20260507012833 50 279 0.0 3.0 0.00 0.00 0.00 49 1013.6
20260507012333 50 259 0.0 3.0 0.00 0.00 0.00 49 1013.5
20260507011833 51 280 0.0 3.0 0.00 0.00 0.00 49 1013.4
20260507011333 51 282 0.0 3.0 0.00 0.00 0.00 49 1013.4
20260507010833 51 291 0.0 2.0 0.00 0.00 0.00 48 1013.4
20260507010333 51 286 0.0 1.0 0.00 0.00 0.00 49 1013.3
20260507005833 52 286 0.0 7.0 0.00 0.00 0.00 49 1013.3
20260507005333 52 291 0.0 7.0 0.00 0.00 0.00 48 1013.3
20260507004832 52 300 0.0 5.0 0.00 0.00 0.00 48 1013.2
20260507004333 52 0 0.0 0.0 0.00 0.00 0.00 48 1013.2
20260507003833 53 281 0.0 2.0 0.00 0.00 0.00 47 1013.2
20260507003333 53 281 0.0 6.0 0.00 0.00 0.00 47 1013.1
20260507002333 53 284 1.0 6.0 0.00 0.00 0.00 46 1013.0
20260507001833 53 274 0.0 7.0 0.00 0.00 0.00 46 1012.9
20260507001333 54 276 1.0 8.0 0.00 0.00 0.00 46 1012.9
20260507000833 54 273 1.0 8.0 0.00 0.00 0.00 45 1012.7
20260507000333 54 274 1.0 6.0 0.00 0.00 0.00 46 1012.7
20260506235833 54 285 1.0 6.0 0.00 0.00 0.00 45 1012.6
20260506235333 55 279 2.0 6.0 0.00 0.00 0.00 45 1012.6
20260506234833 55 270 1.0 6.0 0.00 0.00 0.00 45 1012.4
20260506234333 55 292 1.0 5.0 0.00 0.00 0.00 45 1012.4
20260506233833 55 274 1.0 3.0 0.00 0.00 0.00 44 1012.4
20260506233333 55 267 1.0 3.0 0.00 0.00 0.00 44 1012.4
20260506232833 55 264 1.0 3.0 0.00 0.00 0.00 45 1012.3
20260506232333 55 279 1.0 3.0 0.00 0.00 0.00 44 1012.4
20260506231833 55 269 1.0 7.0 0.00 0.00 0.00 44 1012.3
20260506231333 55 272 2.0 7.0 0.00 0.00 0.00 44 1012.4
20260506230833 55 279 1.0 6.0 0.00 0.00 0.00 44 1012.4
20260506230333 56 275 1.0 8.0 0.00 0.00 0.00 44 1012.2
20260506225833 56 286 1.0 8.0 0.00 0.00 0.00 45 1012.0
20260506225333 56 255 0.0 4.0 0.00 0.00 0.00 45 1012.2
20260506224833 56 255 1.0 6.0 0.00 0.00 0.00 44 1012.1
20260506224333 56 262 1.0 6.0 0.00 0.00 0.00 44 1012.1
20260506223833 56 263 1.0 6.0 0.00 0.00 0.00 44 1012.1
20260506223333 56 254 1.0 5.0 0.00 0.00 0.00 44 1012.0
20260506222833 57 275 2.0 7.0 0.00 0.00 0.00 43 1012.1
20260506222333 57 265 2.0 7.0 0.00 0.00 0.00 43 1012.0
20260506221833 57 274 2.0 7.0 0.00 0.00 0.00 43 1011.9
20260506221333 57 271 1.0 4.0 0.00 0.00 0.00 42 1011.9
20260506220833 57 273 1.0 3.0 0.00 0.00 0.00 44 1011.9
20260506220333 57 266 0.0 4.0 0.00 0.00 0.00 44 1011.8
20260506215833 57 278 1.0 4.0 0.00 0.00 0.00 45 1011.7
20260506215332 57 286 1.0 3.0 0.00 0.00 0.00 42 1011.7
20260506214833 57 280 1.0 4.0 0.00 0.00 0.00 43 1011.6
20260506214333 57 296 1.0 4.0 0.00 0.00 0.00 43 1011.7
20260506213833 58 273 1.0 4.0 0.00 0.00 0.00 43 1011.7
20260506213333 58 272 1.0 4.0 0.00 0.00 0.00 41 1011.6
20260506212833 58 261 1.0 4.0 0.00 0.00 0.00 43 1011.7
20260506212333 58 213 0.0 6.0 0.00 0.00 0.00 41 1011.6
20260506211833 59 241 1.0 6.0 0.00 0.00 0.00 40 1011.6
20260506211332 60 269 2.0 6.0 0.00 0.00 0.00 37 1011.6
20260506210832 60 271 2.0 6.0 0.00 0.00 0.00 36 1011.5
20260506210333 61 257 1.0 3.0 0.00 0.00 0.00 36 1011.4
20260506205833 60 288 1.0 4.0 0.00 0.00 0.00 37 1011.5
20260506205333 60 279 1.0 4.0 0.00 0.00 0.00 35 1011.6
20260506204833 60 263 1.0 8.0 0.00 0.00 0.00 36 1011.5
20260506204333 60 269 1.0 8.0 0.00 0.00 0.00 37 1011.6
20260506203833 59 235 0.0 3.0 0.00 0.00 0.00 38 1011.6
20260506203333 59 266 1.0 6.0 0.00 0.00 0.00 39 1011.7
20260506202833 59 279 1.0 6.0 0.00 0.00 0.00 39 1011.7
20260506202333 58 269 2.0 6.0 0.00 0.00 0.00 38 1011.9
20260506201833 58 301 1.0 3.0 0.00 0.00 0.00 40 1011.8
20260506201333 59 290 1.0 7.0 0.00 0.00 0.00 42 1011.9
20260506200833 60 282 2.0 7.0 0.00 0.00 0.00 37 1012.1
20260506200333 60 257 1.0 6.0 0.00 0.00 0.00 39 1012.1
20260506195833 60 254 1.0 6.0 0.00 0.00 0.00 38 1012.2
20260506195333 59 263 1.0 6.0 0.00 0.00 0.00 39 1012.2
20260506194833 58 273 2.0 4.0 0.00 0.00 0.00 41 1012.3
20260506194333 58 280 0.0 4.0 0.00 0.00 0.00 42 1012.3
20260506193833 58 280 1.0 4.0 0.00 0.00 0.00 40 1012.3
20260506193333 58 269 1.0 8.0 0.00 0.00 0.00 42 1012.4
20260506192833 58 283 2.0 8.0 0.00 0.00 0.00 42 1012.4
20260506192333 58 287 0.0 4.0 0.00 0.00 0.00 41 1012.4
20260506191833 58 273 0.0 4.0 0.00 0.00 0.00 42 1012.4
20260506191333 57 278 0.0 3.0 0.00 0.00 0.00 41 1012.4
20260506190833 57 278 1.0 8.0 0.00 0.00 0.00 43 1012.4
20260506190332 57 271 2.0 8.0 0.00 0.00 0.00 44 1012.4
20260506185833 57 264 1.0 6.0 0.00 0.00 0.00 41 1012.4
20260506185333 57 229 1.0 6.0 0.00 0.00 0.00 41 1012.6
20260506184833 56 254 1.0 4.0 0.00 0.00 0.00 42 1012.4
20260506184333 56 271 1.0 7.0 0.00 0.00 0.00 42 1012.4
20260506183833 56 282 2.0 7.0 0.00 0.00 0.00 41 1012.4
20260506183333 57 273 1.0 5.0 0.00 0.00 0.00 41 1012.4
20260506182833 57 258 1.0 4.0 0.00 0.00 0.00 42 1012.4
20260506182333 57 271 1.0 4.0 0.00 0.00 0.00 41 1012.3
20260506181833 58 278 1.0 6.0 0.00 0.00 0.00 41 1012.4
20260506181333 58 275 1.0 6.0 0.00 0.00 0.00 40 1012.3
20260506180833 58 262 1.0 5.0 0.00 0.00 0.00 42 1012.3
20260506180333 58 264 1.0 4.0 0.00 0.00 0.00 42 1012.2
20260506175833 58 274 1.0 4.0 0.00 0.00 0.00 41 1012.3
20260506175333 58 260 0.0 3.0 0.00 0.00 0.00 43 1012.5
20260506174833 58 252 1.0 6.0 0.00 0.00 0.00 42 1012.5
20260506174333 57 271 1.0 6.0 0.00 0.00 0.00 41 1012.5
20260506173832 57 268 0.0 4.0 0.00 0.00 0.00 41 1012.5
20260506173333 57 268 1.0 4.0 0.00 0.00 0.00 40 1012.5
20260506172333 58 271 1.0 6.0 0.00 0.00 0.00 42 1012.6
20260506171833 58 210 1.0 6.0 0.00 0.00 0.00 42 1012.6
20260506171332 58 254 1.0 6.0 0.00 0.00 0.00 42 1012.6
20260506170832 57 249 1.0 7.0 0.00 0.00 0.00 44 1012.7
20260506170333 58 284 1.0 7.0 0.00 0.00 0.00 43 1012.8
20260506165833 58 273 1.0 7.0 0.00 0.00 0.00 42 1012.8
20260506165333 58 269 1.0 7.0 0.00 0.00 0.00 40 1012.8
20260506164833 58 259 1.0 4.0 0.00 0.00 0.00 47 1012.7
20260506164333 57 255 1.0 4.0 0.00 0.00 0.00 43 1012.8
20260506163833 57 270 1.0 6.0 0.00 0.00 0.00 40 1012.7
20260506163333 57 278 2.0 7.0 0.00 0.00 0.00 39 1012.9
20260506162833 57 270 1.0 7.0 0.00 0.00 0.00 40 1012.8
20260506162333 57 252 0.0 6.0 0.00 0.00 0.00 39 1012.8
20260506161833 57 252 1.0 6.0 0.00 0.00 0.00 40 1012.8
20260506161333 57 263 1.0 4.0 0.00 0.00 0.00 41 1012.7
20260506160833 57 273 2.0 8.0 0.00 0.00 0.00 41 1012.8
20260506160333 56 288 1.0 8.0 0.00 0.00 0.00 42 1012.8
20260506155833 56 278 0.0 4.0 0.00 0.00 0.00 44 1012.8
20260506155333 56 281 1.0 4.0 0.00 0.00 0.00 41 1012.8
20260506154833 56 293 0.0 3.0 0.00 0.00 0.00 42 1012.7
20260506154333 56 280 1.0 3.0 0.00 0.00 0.00 40 1012.8
20260506153833 56 314 0.0 3.0 0.00 0.00 0.00 42 1012.8
20260506153333 57 251 1.0 3.0 0.00 0.00 0.00 40 1012.8
20260506152833 56 227 1.0 4.0 0.00 0.00 0.00 40 1012.8
20260506152333 56 257 1.0 4.0 0.00 0.00 0.00 41 1012.8
20260506151833 56 296 1.0 3.0 0.00 0.00 0.00 46 1012.9
20260506151333 56 0 0.0 0.0 0.00 0.00 0.00 45 1012.8
20260506150833 56 257 0.0 1.0 0.00 0.00 0.00 46 1012.9
20260506150333 56 257 0.0 1.0 0.00 0.00 0.00 49 1012.9
20260506145833 55 257 0.0 1.0 0.00 0.00 0.00 46 1012.9
20260506145333 55 257 0.0 1.0 0.00 0.00 0.00 47 1013.0
20260506144833 55 256 0.0 3.0 0.00 0.00 0.00 47 1013.1
20260506144333 54 223 0.0 3.0 0.00 0.00 0.00 47 1013.0
20260506143833 54 317 0.0 1.0 0.00 0.00 0.00 48 1013.0
20260506143333 54 232 0.0 2.0 0.00 0.00 0.00 50 1013.1
20260506142833 54 232 0.0 2.0 0.00 0.00 0.00 49 1013.0
20260506142333 53 189 0.0 1.0 0.00 0.00 0.00 51 1013.0
20260506141833 53 183 0.0 3.0 0.00 0.00 0.00 50 1013.0
20260506141333 53 183 0.0 3.0 0.00 0.00 0.00 50 1012.9
20260506140833 53 176 0.0 2.0 0.00 0.00 0.00 52 1012.9
20260506140333 52 176 0.0 2.0 0.00 0.00 0.00 51 1012.8
20260506135833 52 181 0.0 1.0 0.00 0.00 0.00 52 1012.8
20260506135333 52 181 0.0 1.0 0.00 0.00 0.00 54 1012.8
20260506134833 52 0 0.0 0.0 0.00 0.00 0.00 54 1012.7
20260506134333 52 208 0.0 2.0 0.00 0.00 0.00 54 1012.6
20260506133833 52 208 0.0 2.0 0.00 0.00 0.00 51 1012.5
20260506133333 52 210 0.0 2.0 0.00 0.00 0.00 53 1012.4
20260506132833 51 213 0.0 2.0 0.00 0.00 0.00 53 1012.4
20260506132333 51 0 0.0 0.0 0.00 0.00 0.00 58 1012.3
20260506131833 50 0 0.0 0.0 0.00 0.00 0.00 58 1012.4
20260506131333 50 0 0.0 0.0 0.00 0.00 0.00 60 1012.3
20260506130833 49 0 0.0 0.0 0.00 0.00 0.00 62 1012.3
20260506130333 48 0 0.0 0.0 0.00 0.00 0.00 65 1012.3
20260506125833 47 0 0.0 0.0 0.00 0.00 0.00 67 1012.2
20260506125333 46 0 0.0 0.0 0.00 0.00 0.00 71 1012.2
20260506124833 45 0 0.0 0.0 0.00 0.00 0.00 77 1012.1
20260506124333 45 0 0.0 0.0 0.00 0.00 0.00 81 1012.1
20260506123833 44 0 0.0 0.0 0.00 0.00 0.00 84 1012.0
20260506123333 44 0 0.0 0.0 0.00 0.00 0.00 85 1012.1
20260506122833 43 0 0.0 0.0 0.00 0.00 0.00 86 1012.0
20260506122333 43 0 0.0 0.0 0.00 0.00 0.00 86 1011.8
20260506121833 42 0 0.0 0.0 0.00 0.00 0.00 87 1011.8
20260506121333 42 0 0.0 0.0 0.00 0.00 0.00 87 1011.8
20260506120833 42 0 0.0 0.0 0.00 0.00 0.00 87 1011.8
20260506120333 41 0 0.0 0.0 0.00 0.00 0.00 87 1011.8
20260506115833 41 0 0.0 0.0 0.00 0.00 0.00 87 1011.8
20260506115332 41 0 0.0 0.0 0.00 0.00 0.00 86 1011.8
20260506114833 40 0 0.0 0.0 0.00 0.00 0.00 86 1011.7
20260506114333 40 0 0.0 0.0 0.00 0.00 0.00 86 1011.6
20260506113833 40 0 0.0 0.0 0.00 0.00 0.00 85 1011.6
20260506113333 40 0 0.0 0.0 0.00 0.00 0.00 85 1011.6
20260506112833 40 0 0.0 0.0 0.00 0.00 0.00 84 1011.5
20260506112333 40 0 0.0 0.0 0.00 0.00 0.00 84 1011.5
20260506111833 40 0 0.0 0.0 0.00 0.00 0.00 84 1011.4
20260506111333 40 0 0.0 0.0 0.00 0.00 0.00 83 1011.4
20260506110833 41 0 0.0 0.0 0.00 0.00 0.00 83 1011.3
20260506110333 41 0 0.0 0.0 0.00 0.00 0.00 82 1011.3
20260506105833 41 0 0.0 0.0 0.00 0.00 0.00 81 1011.2
20260506105333 41 0 0.0 0.0 0.00 0.00 0.00 81 1011.1
20260506104833 41 0 0.0 0.0 0.00 0.00 0.00 80 1011.0
20260506104333 41 0 0.0 0.0 0.00 0.00 0.00 80 1010.9
20260506103833 42 0 0.0 0.0 0.00 0.00 0.00 80 1010.7
20260506103332 42 0 0.0 0.0 0.00 0.00 0.00 79 1010.6
20260506102833 42 0 0.0 0.0 0.00 0.00 0.00 79 1010.5
20260506102333 42 0 0.0 0.0 0.00 0.00 0.00 79 1010.5
20260506101833 42 0 0.0 0.0 0.00 0.00 0.00 78 1010.4
20260506101333 42 0 0.0 0.0 0.00 0.00 0.00 78 1010.4
20260506100833 42 0 0.0 0.0 0.00 0.00 0.00 78 1010.6
20260506100333 43 0 0.0 0.0 0.00 0.00 0.00 77 1010.6
20260506095833 43 0 0.0 0.0 0.00 0.00 0.00 77 1010.6
20260506095333 43 0 0.0 0.0 0.00 0.00 0.00 77 1010.6
20260506094833 43 0 0.0 0.0 0.00 0.00 0.00 77 1010.6
20260506094333 43 0 0.0 0.0 0.00 0.00 0.00 76 1010.4
20260506093833 43 0 0.0 0.0 0.00 0.00 0.00 75 1010.6
20260506093333 43 0 0.0 0.0 0.00 0.00 0.00 75 1010.5
20260506092833 43 0 0.0 0.0 0.00 0.00 0.00 73 1010.5
20260506092333 43 0 0.0 0.0 0.00 0.00 0.00 72 1010.4
20260506091833 43 0 0.0 0.0 0.00 0.00 0.00 72 1010.6
20260506091333 44 0 0.0 0.0 0.00 0.00 0.00 71 1010.7
20260506090833 44 0 0.0 0.0 0.00 0.00 0.00 71 1010.9